PulseSat

PulseSat

MOLNIYA 1-80

Last updated on Dec. 8, 2018, 12:08 a.m. UTC

1 21118U 91012A   18341.39607787 -.00000830  00000-0 -43727-2 0  9998
2 21118  63.5071 120.7391 6802149 289.6615  12.2899  2.05249774204565
UTC
Height (km)
Latitude
Longitude
Inclination
Orbital Period

Next 30 passes for location: Hong Kong

Rise time Rise Azimuth (degrees) Set time Set Azimuth (degrees) Duration Max altitude (degrees)

No matching passes for this satellites

PulseSat

PulseSat is the new satellites software and hardware trackering solution by Pulsely.
Satellite Two Line Element Set source: US Air Force Space Command

Download PulseSat for iOS
© 2017 Pulsely Limited